This demonstration page uses our WeatherBlox Daily Observations layout. Learn more.

Left ArrowRight Arrow

40.92945, -100.16068

Hourly Observations for May 28, 2015

Temp ( °F °C ) Dew Point ( °F °C ) Humidity (%) Winds ( mph kmh ) Pressure ( in mb ) Visibility ( mi km ) Precip ( " mm )
12:15 am 00:15 Clear 64 17.7 60 15.7 88 88 SE 6 9 29.97 1015 10 16.0934 N/A
12:35 am 00:35 Clear 61 16.2 59 14.9 92 92 ESE 7 11 30 1016 10 16.0934 N/A
12:55 am 00:55 Clear 61 16.2 59 15 93 93 ESE 6 9 30 1016 10 16.0934 N/A
1:15 am 01:15 Clear 62 16.5 60 15.4 93 93 ESE 6 9 29.97 1015 10 16.0934 N/A
1:35 am 01:35 Clear 61 16.3 59 15.1 93 93 ESE 5 7 30 1016 10 16.0934 N/A
1:55 am 01:55 Clear 60 15.3 58 14.2 93 93 ESE 5 7 30 1016 10 16.0934 N/A
2:15 am 02:15 Clear 59 14.9 57 13.9 94 94 E 3 6 30 1016 10 16.0934 N/A
2:35 am 02:35 Clear 58 14.5 56 13.5 94 94 E 3 6 29.97 1015 7 11.26538 N/A
2:55 am 02:55 Clear with Mist and Fog 58 14.4 56 13.5 94 94 N N/A 29.97 1015 5 8.0467 N/A
3:15 am 03:15 Clear with Mist and Fog 56 13.5 55 12.8 96 96 E 5 7 29.97 1015 2.5 4.02335 N/A
3:35 am 03:35 Clear with Mist and Fog 56 13.3 55 12.6 96 96 ESE 6 9 30 1016 2.5 4.02335 N/A
3:55 am 03:55 Clear with Mist and Fog 57 14.1 56 13.5 96 96 SE 5 7 29.97 1015 5 8.0467 N/A
4:15 am 04:15 Clear with Mist and Fog 58 14.2 56 13.6 96 96 SE 6 9 30 1016 5 8.0467 N/A
4:35 am 04:35 Clear with Mist and Fog 58 14.5 57 13.9 96 96 SSE 5 7 30 1016 3 4.82802 N/A
4:55 am 04:55 Clear with Mist and Fog 58 14.3 57 13.7 96 96 SSE 5 7 30 1016 4 6.43736 N/A
5:15 am 05:15 Clear with Mist and Fog 59 14.8 58 14.2 96 96 SE 3 6 30 1016 4 6.43736 N/A
5:35 am 05:35 Mostly Cloudy with Fog 56 13.6 55 12.9 96 96 N N/A 30 1016 0.5 0.80467 N/A
5:55 am 05:55 Mostly Cloudy with Fog 56 13.1 55 12.5 96 96 N N/A 30.03 1017 0.25 0.402335 N/A
6:15 am 06:15 Mostly Cloudy with Fog 55 12.5 54 12 97 97 N N/A 30.03 1017 5 8.0467 N/A
6:35 am 06:35 Mostly Cloudy with Fog 53 11.5 52 11 97 97 N N/A 30.03 1017 5 8.0467 N/A
6:55 am 06:55 Cloudy with Fog 53 11.5 52 11 97 97 N N/A 30.03 1017 5 8.0467 N/A
7:15 am 07:15 Cloudy with Fog 55 12.8 54 12.3 97 97 ESE 3 6 30.03 1017 5 8.0467 N/A
7:35 am 07:35 Cloudy with Fog 58 14.2 57 13.9 98 98 N N/A 30 1016 5 8.0467 N/A
7:55 am 07:55 Cloudy with Fog 58 14.6 58 14.2 97 97 N N/A 30 1016 0.25 0.402335 N/A
8:15 am 08:15 Partly Cloudy with Mist and Fog 60 15.4 59 15 97 97 N N/A 30 1016 2 3.21868 N/A
8:35 am 08:35 Sunny with Mist and Fog 61 16.2 61 15.9 98 98 N N/A 30 1016 5 8.0467 N/A
8:55 am 08:55 Sunny with Mist and Fog 62 16.8 62 16.4 98 98 SE 5 7 29.97 1015 5 8.0467 N/A
9:15 am 09:15 Sunny 62 16.5 61 16.1 98 98 SE 8 13 29.97 1015 7 11.26538 N/A
9:35 am 09:35 Sunny 63 17.2 62 16.9 98 98 SE 7 11 29.97 1015 7 11.26538 N/A
9:55 am 09:55 Sunny 63 17.3 62 16.7 96 96 SSE 9 15 29.97 1015 10 16.0934 N/A
10:15 am 10:15 Sunny 63 17 61 16.1 94 94 S 13 20 29.94 1014 10 16.0934 N/A
10:35 am 10:35 Sunny 64 18 62 16.7 92 92 SSE 17 28 29.94 1014 10 16.0934 N/A
10:55 am 10:55 Mostly Cloudy 66 19.1 60 15.5 80 80 SSE 15 24 29.94 1014 10 16.0934 N/A
11:15 am 11:15 Cloudy 67 19.5 59 15.1 76 76 SSE 17 28 29.91 1013 10 16.0934 N/A
11:35 am 11:35 Cloudy 67 19.5 59 15.2 76 76 S 16 26 29.91 1013 10 16.0934 N/A
11:55 am 11:55 Cloudy 67 19.5 59 15.1 76 76 S 15 24 29.91 1013 10 16.0934 N/A
12:15 pm 12:15 Mostly Cloudy 68 20.1 60 15.8 76 76 S 10 17 29.91 1013 10 16.0934 N/A
12:35 pm 12:35 Mostly Cloudy 69 20.3 60 15.8 75 75 S 13 20 29.91 1013 10 16.0934 N/A
12:55 pm 12:55 Mostly Cloudy 69 20.6 61 16 75 75 S 13 20 29.91 1013 10 16.0934 N/A
1:15 pm 13:15 Cloudy 70 21.2 61 16.2 73 73 SSE 14 22 29.91 1013 10 16.0934 N/A
1:35 pm 13:35 Cloudy 70 21.1 61 16 73 73 SSE 13 20 29.91 1013 10 16.0934 N/A
1:55 pm 13:55 Cloudy 71 21.7 62 16.7 73 73 S 12 19 29.91 1013 10 16.0934 N/A
2:15 pm 14:15 Cloudy 71 21.6 62 16.5 73 73 S 15 24 29.88 1012 10 16.0934 N/A
2:35 pm 14:35 Mostly Cloudy 72 22.3 62 16.9 72 72 S 12 19 29.88 1012 10 16.0934 N/A
2:55 pm 14:55 Mostly Cloudy 72 22.3 63 17 72 72 S 13 20 29.85 1011 10 16.0934 N/A
3:15 pm 15:15 Partly Cloudy 75 23.8 64 17.5 68 68 SSW 15 24 29.83 1010 10 16.0934 N/A
3:35 pm 15:35 Partly Cloudy 74 23.5 62 16.8 66 66 S 14 22 29.83 1010 10 16.0934 N/A
3:55 pm 15:55 Partly Cloudy 74 23.2 62 16.5 66 66 S 13 20 29.8 1009 10 16.0934 N/A
4:15 pm 16:15 Partly Cloudy 75 23.8 62 16.7 65 65 S 15 24 29.8 1009 10 16.0934 N/A
4:35 pm 16:35 Sunny 75 24 62 16.4 63 63 SSW 16 26 29.8 1009 10 16.0934 N/A
4:55 pm 16:55 Sunny 76 24.3 62 16.8 63 63 S 14 22 29.8 1009 10 16.0934 N/A
5:15 pm 17:15 Partly Cloudy 75 23.7 62 16.5 64 64 S 14 22 29.77 1008 10 16.0934 N/A
5:35 pm 17:35 Partly Cloudy 75 24.1 61 16.1 61 61 SSW 20 31 29.77 1008 10 16.0934 N/A
5:55 pm 17:55 Partly Cloudy 75 24 61 16.1 61 61 S 15 24 29.77 1008 10 16.0934 N/A
6:15 pm 18:15 Partly Cloudy 75 24 60 15.3 58 58 SSW 17 28 29.77 1008 10 16.0934 N/A
6:35 pm 18:35 Partly Cloudy 75 23.7 61 15.9 62 62 S 13 20 29.77 1008 10 16.0934 N/A
6:55 pm 18:55 Partly Cloudy 74 23.2 61 16.1 64 64 S 15 24 29.77 1008 10 16.0934 N/A
7:15 pm 19:15 Partly Cloudy 74 23.2 61 16 64 64 S 12 19 29.77 1008 10 16.0934 N/A
7:35 pm 19:35 Partly Cloudy 74 23.1 60 15.6 63 63 SSW 12 19 29.8 1009 10 16.0934 N/A
7:55 pm 19:55 Partly Cloudy 74 23.1 60 15.3 62 62 S 13 20 29.8 1009 10 16.0934 N/A
8:15 pm 20:15 Partly Cloudy 72 22.4 60 15.7 66 66 S 12 19 29.83 1010 10 16.0934 N/A
8:35 pm 20:35 Partly Cloudy 72 22 61 16 69 69 S 9 15 29.83 1010 10 16.0934 N/A
8:55 pm 20:55 Sunny 71 21.6 61 16.2 71 71 S 14 22 29.83 1010 10 16.0934 N/A
9:15 pm 21:15 Partly Cloudy 66 19.1 55 12.5 66 66 W 31 50 29.91 1013 10 16.0934 N/A
9:35 pm 21:35 Partly Cloudy 61 16.1 55 13 82 82 WNW 20 31 29.94 1014 10 16.0934 N/A
9:55 pm 21:55 Clear 60 15.8 56 13.1 84 84 WNW 15 24 29.88 1012 10 16.0934 N/A
10:15 pm 22:15 Clear 60 15.6 56 13.1 85 85 NW 8 13 29.85 1011 10 16.0934 N/A
10:35 pm 22:35 Clear 60 15.6 55 13 85 85 NNW 3 6 29.85 1011 10 16.0934 N/A
10:55 pm 22:55 Clear 59 15.2 55 13 87 87 N N/A 29.88 1012 10 16.0934 N/A
11:15 pm 23:15 Clear 58 14.3 55 12.5 89 89 SE 3 6 29.88 1012 10 16.0934 N/A
11:35 pm 23:35 Clear 58 14.3 55 12.7 90 90 N N/A 29.88 1012 10 16.0934 N/A
11:55 pm 23:55 Clear 58 14.5 56 13.1 91 91 N N/A 29.91 1013 10 16.0934 N/A

Powered by AerisWeather